Location: Newark
(50.4915°N, 30.7416°E)
Time: 08:43:45
(UTC+00:00)

N. Korean satellite - Visible Passes

Search period start: 07 December 2019 00:00
Search period end: 17 December 2019 00:00
Orbit: 456 x 506 km, 97.2° (Epoch: 06 December)

Date Brightness Start Highest point End Pass type
(mag) Time Alt. Az. Time Alt. Az. Time Alt. Az.
07 Dec 9.1 03:10:02 10° NE 03:12:58 23° E 03:15:48 10° SSE visible
07 Dec 7.3 04:43:12 10° N 04:46:24 30° WNW 04:49:32 10° SW visible
07 Dec 8.2 15:22:40 10° SSW 15:26:11 39° W 15:29:42 10° NNW visible
08 Dec 10.0 02:45:40 10° ENE 02:47:16 13° E 02:48:52 10° ESE visible
08 Dec 6.5 04:17:31 10° N 04:21:04 58° WNW 04:24:31 10° SSW visible
08 Dec 6.8 14:56:58 10° S 15:00:41 77° WSW 15:04:24 10° NNW visible
09 Dec 6.8 03:52:04 10° NNE 03:55:39 70° ESE 03:59:08 10° S visible
09 Dec 6.7 14:31:40 10° SSE 14:35:17 54° ENE 14:38:55 10° N visible
09 Dec 9.9 16:06:53 10° SW 16:08:59 15° W 16:11:07 10° NW visible
10 Dec 8.2 03:26:49 10° NNE 03:30:08 34° E 03:33:21 10° SSE visible
10 Dec 7.8 05:00:37 10° NNW 05:03:20 21° WNW 05:06:01 10° WSW visible
10 Dec 9.0 15:40:12 10° SSW 15:43:21 26° W 15:46:30 10° NW visible
11 Dec 9.4 03:01:56 10° NE 03:04:31 19° E 03:07:03 10° SE visible
11 Dec 7.0 04:34:46 10° N 04:38:04 36° WNW 04:41:18 10° SW visible
11 Dec 7.7 15:14:12 10° S 15:17:48 48° W 15:21:24 10° NNW visible
12 Dec 10.2 02:38:46 10° E 02:38:47 10° E 02:38:49 10° E visible
12 Dec 6.4 04:09:09 10° N 04:12:42 72° WNW 04:16:10 10° SSW visible
12 Dec 6.6 14:48:38 10° SSE 14:52:20 86° ENE 14:56:02 10° NNW visible
13 Dec 7.2 03:43:45 10° NNE 03:47:14 55° E 03:50:39 10° S visible
13 Dec 9.7 15:58:02 10° SW 16:00:34 17° W 16:03:05 10° NW visible
14 Dec 8.6 03:18:35 10° NE 03:21:41 28° E 03:24:43 10° SSE visible
14 Dec 7.6 04:52:06 10° N 04:55:00 24° WNW 04:57:52 10° WSW visible
14 Dec 8.7 15:31:38 10° SSW 15:34:56 31° W 15:38:15 10° NNW visible
15 Dec 9.7 02:53:53 10° NE 02:56:02 15° E 02:58:09 10° SE visible
15 Dec 6.7 04:26:19 10° N 04:29:42 44° WNW 04:33:01 10° SW visible
15 Dec 7.2 15:05:46 10° S 15:09:24 60° W 15:13:02 10° NNW visible
16 Dec 6.4 04:00:45 10° NNE 04:04:18 90° ENE 04:07:45 10° SSW visible
16 Dec 6.6 14:40:18 10° SSE 14:43:58 69° ENE 14:47:36 10° N visible
16 Dec 10.1 16:16:31 10° WSW 16:17:47 11° W 16:19:03 10° WNW visible
